Wind_Speed
14 17 16 15 16 19 14 13 13 13 9 4 1 4 7 11 18 21 25 26 29 26 28 28 21 20 21 17 11 19 16 14 16 18 19 17 25 14 5 9 8 5 6
10 16 16 12 10 11 11 14 16 11 10 10 2 1 4 8 12 18 20 23 28 27 27 26 28 25 25 28 22 21 19 18 17 19 17 18 13 19 6 13 8 6 7
10 12 13 14 11 8 4 6 9 7 7 10 4 1 3 4 4 11 12 20 23 26 27 27 27 22 24 25 24 22 19 19 17 18 18 17 16 15 10 13 12 13 12
9 11 12 12 12 11 8 6 6 8 7 4 3 3 3 3 5 6 7 17 21 21 27 25 23 24 27 26 17 24 15 15 19 17 22 19 22 14 14 16 16 15 14
11 11 11 13 10 8 8 7 9 6 5 5 5 3 2 0 5 4 4 6 5 11 14 16 16 22 21 24 18 17 18 26 24 21 16 14 14 12 15 16 18 17 17
14 17 14 12 13 11 5 5 5 2 1 3 4 3 2 3 3 7 9 11 12 16 15 14 12 12 15 23 26 22 18 18 19 10 9 15 19 19 17 17 20 19 21
16 16 19 15 15 14 8 4 4 2 2 4 5 5 5 6 6 6 8 9 10 12 12 13 16 18 18 20 17 8 9 9 10 11 11 11 12 13 14 16 18 21 24
20 18 18 18 16 15 11 6 7 5 5 6 8 9 8 6 4 2 3 5 5 5 6 6 7 8 7 7 7 9 11 13 15 15 17 18 18 19 20 22 23 25 28
21 19 18 18 14 12 10 10 9 11 11 10 12 12 11 9 8 9 8 8 9 11 10 11 12 11 13 12 13 13 15 17 19 20 22 22 23 24 25 26 26 29 32
24 22 23 16 12 13 15 15 14 13 13 12 13 13 11 13 11 12 10 10 11 10 10 11 14 13 17 15 17 18 22 23 23 26 28 30 31 35 33 30 30 31 34
19 18 20 19 14 15 16 13 13 12 13 14 17 19 20 16 15 15 16 15 14 14 15 16 18 14 19 22 21 22 25 30 31 29 30 30 35 41 41 34 35 39 39
11 15 15 17 11 18 16 17 18 18 17 18 18 18 14 17 17 17 24 27 26 21 17 17 18 21 28 26 29 27 27 34 36 34 38 42 25 28 32 35 32 31 32
8 11 12 17 15 17 18 15 18 14 10 17 13 10 14 16 21 22 19 22 22 16 14 17 21 26 23 23 25 24 30 31 29 28 27 28 26 31 32 35 33 31 29
6 9 11 13 15 18 14 10 13 13 9 11 12 14 13 13 14 18 16 15 13 13 14 15 17 21 22 21 21 24 25 27 29 28 28 29 31 32 33 31 31 29 27
5 9 7 8 8 7 9 8 9 8 10 10 9 9 10 11 15 14 15 13 11 11 14 16 19 21 22 23 24 26 25 25 26 26 27 28 30 29 29 26 25 24 22
3 4 5 3 4 7 9 5 4 5 5 5 6 9 11 11 11 12 12 13 14 15 17 17 19 19 20 22 23 26 25 23 24 25 26 25 25 25 23 23 21 20 19
1 1 4 5 5 4 3 2 3 4 5 6 8 9 11 12 12 13 14 15 16 17 17 16 16 17 18 18 19 19 20 20 20 20 21 22 21 20 19 18 18 17 16
4 5 4 3 3 4 3 3 3 3 6 8 10 11 12 13 14 14 14 14 14 13 14 14 15 16 18 18 19 20 21 22 23 22 22 22 20 17 16 15 14 15 11
7 6 4 3 4 5 7 8 11 12 11 11 12 13 14 14 13 12 11 11 11 12 14 18 16 17 18 19 20 21 21 21 20 19 19 19 18 17 15 14 13 14 12
4 1 2 2 2 5 6 4 11 13 13 18 15 9 9 10 9 7 8 10 12 13 16 17 21 24 23 22 20 20 21 21 22 20 19 18 16 15 15 14 12 11 11
2 1 2 6 4 9 9 12 14 10 6 15 7 8 8 9 9 10 12 15 16 17 18 17 18 22 22 23 21 19 20 19 23 19 17 17 16 15 14 13 12 12 11
5 4 7 6 9 14 15 12 14 12 11 8 1 3 5 7 10 13 15 16 17 18 18 17 18 19 22 23 20 19 17 18 24 17 15 15 14 13 12 11 12 11 9
3 4 9 16 15 14 15 14 11 4 6 6 6 7 9 11 14 15 16 18 18 19 19 19 18 19 18 19 17 17 17 17 16 12 13 14 13 13 11 10 10 11 8
1 12 10 15 21 20 21 12 10 2 6 7 9 10 12 14 16 17 16 16 16 18 20 19 19 17 15 14 15 16 13 14 15 13 13 11 11 11 10 9 8 6 5
3 14 16 12 18 18 17 8 10 14 8 9 10 13 14 15 15 15 15 15 16 17 18 18 16 14 14 13 13 12 14 13 13 11 10 9 8 8 7 5 4 4 4
10 15 13 10 12 15 9 11 15 16 10 12 14 15 15 16 16 15 14 13 13 15 17 15 17 13 13 11 12 11 10 10 11 10 9 8 7 6 5 4 4 4 4
Wind_Direction
344 21 32 45 57 51 43 33 52 37 29 4 17 180 199 203 204 214 220 222 226 232 241 247 239 241 231 226 244 239 246 258 257 252 259 259 253 238 247 257 250 262 239
356 17 26 34 20 39 48 65 55 21 16 10 4 84 200 194 207 221 226 227 225 230 237 242 248 246 216 218 241 256 253 269 263 259 242 249 253 289 254 243 248 248 235
0 12 11 26 28 12 351 354 5 19 11 12 358 127 210 207 215 212 230 236 238 241 244 245 245 238 227 231 232 247 257 266 264 261 254 251 268 271 242 253 242 242 242
331 349 351 7 21 20 5 348 347 1 15 18 50 357 331 261 223 232 240 239 233 235 250 231 240 239 236 238 251 246 236 219 256 257 247 248 245 241 233 243 241 244 250
325 319 325 339 351 6 11 348 330 349 14 19 29 40 26 259 243 236 289 279 277 256 249 245 251 274 263 256 261 255 264 263 253 255 244 264 249 240 243 252 249 253 258
310 305 312 312 320 326 331 332 316 344 336 326 350 344 278 308 305 255 247 242 249 256 270 278 275 265 271 255 268 261 252 259 255 250 250 247 251 252 256 250 259 262 259
306 292 295 298 298 298 297 294 275 298 262 277 283 288 315 317 304 275 268 259 240 244 249 251 258 264 264 258 252 255 244 251 255 257 260 259 258 264 260 258 261 265 268
295 294 289 290 288 276 278 266 258 267 265 271 277 284 296 310 306 269 202 228 225 236 245 245 239 242 242 238 243 248 245 240 246 250 250 251 252 257 261 263 262 266 270
275 277 269 269 285 280 249 262 262 281 283 280 281 286 296 304 302 284 273 274 263 263 265 262 257 253 235 260 256 247 245 248 255 256 257 258 260 263 265 267 270 273 272
268 251 270 277 284 258 257 264 261 265 275 283 277 275 285 290 287 283 278 278 274 270 272 262 265 246 261 268 262 260 260 259 263 265 261 261 260 259 262 263 267 272 276
268 266 273 259 267 263 266 254 262 265 276 282 280 261 269 266 273 276 279 283 284 269 274 274 276 260 268 274 260 261 271 261 260 259 275 263 257 264 277 282 280 277 277
269 249 253 249 255 248 260 259 268 268 274 279 285 268 251 256 260 274 286 282 294 272 275 290 269 272 280 265 269 265 269 271 273 271 267 278 273 283 286 281 278 278 279
255 256 256 241 249 262 262 266 283 267 269 286 260 266 274 296 272 276 295 278 267 255 265 269 277 276 257 260 267 289 278 279 282 279 280 276 271 280 287 286 291 288 286
231 234 240 252 262 265 258 272 264 276 254 257 271 263 273 286 285 295 291 288 294 280 282 284 285 274 276 278 281 283 285 285 285 286 282 282 283 284 287 290 289 290 290
216 229 206 232 260 261 260 254 267 247 262 268 280 280 293 287 304 303 304 302 302 295 287 285 286 290 293 292 289 289 292 292 291 288 286 285 285 287 289 289 288 288 287
154 220 245 221 198 221 258 256 264 278 287 291 284 286 290 293 293 297 302 302 297 293 295 298 297 296 297 298 299 301 302 300 298 297 296 296 295 294 294 289 287 285 283
158 249 247 214 195 152 168 240 273 292 302 303 298 296 297 302 307 308 304 301 301 302 302 305 310 310 311 311 312 314 315 314 312 310 305 303 299 292 287 282 282 280 280
158 149 147 150 172 184 222 254 263 293 296 299 302 304 305 308 310 310 313 317 314 312 320 326 326 326 323 323 321 320 319 317 318 319 315 313 312 307 295 288 284 286 293
143 135 136 89 37 355 353 349 331 325 312 311 310 317 315 315 319 323 326 325 332 332 334 331 333 328 328 327 324 323 318 317 316 315 313 314 311 308 301 296 295 291 290
105 78 3 20 14 49 52 320 318 332 336 319 324 331 329 324 320 337 349 354 340 332 329 327 325 323 325 324 326 325 322 319 316 318 318 314 313 306 298 295 288 288 289
134 244 317 83 175 245 266 270 279 294 261 285 333 310 334 342 353 340 330 330 326 321 316 318 312 311 313 317 324 320 317 313 309 318 311 306 307 304 301 299 295 290 284
327 20 325 295 302 308 296 300 303 291 270 286 355 334 336 330 328 328 321 316 318 314 316 317 314 311 308 313 316 315 309 300 306 319 308 308 304 299 303 302 296 289 287
109 335 293 287 307 311 307 307 298 287 345 333 342 343 326 327 322 321 319 319 321 318 316 316 312 307 308 313 316 314 315 311 324 312 309 306 303 300 299 295 289 289 297
186 282 296 292 296 315 315 320 356 26 217 288 307 307 310 317 318 322 317 317 317 315 317 324 320 319 316 317 317 321 331 312 318 316 307 307 308 307 300 297 297 302 306
129 271 277 265 286 300 316 320 295 286 274 267 281 301 309 317 316 313 315 320 320 321 324 327 338 333 328 330 326 325 326 326 323 322 324 324 318 309 302 307 318 317 316
245 265 272 210 248 277 273 250 257 267 278 285 295 297 308 311 312 315 319 322 318 316 324 330 327 336 336 335 336 336 337 335 330 331 331 328 327 322 326 335 338 336 346
Height
3140 3136 3133 3130 3128 3126 3124 3124 3124 3123 3123 3122 3121 3123 3124 3126 3130 3134 3136 3142 3146 3149 3152 3155 3155 3158 3161 3164 3161 3166 3168 3170 3170 3170 3170 3171 3170 3170 3170 3174 3174 3173 3173
3141 3137 3134 3132 3130 3129 3128 3126 3125 3125 3125 3124 3123 3123 3125 3127 3130 3131 3133 3138 3142 3145 3148 3151 3152 3153 3156 3158 3160 3162 3164 3165 3166 3166 3167 3168 3166 3167 3162 3169 3171 3171 3171
3141 3138 3136 3133 3132 3131 3130 3129 3128 3127 3126 3126 3125 3126 3127 3128 3130 3133 3135 3138 3140 3143 3145 3147 3149 3149 3151 3152 3154 3158 3159 3160 3160 3161 3162 3163 3163 3162 3164 3166 3169 3168 3168
3139 3137 3136 3134 3132 3131 3131 3130 3129 3128 3127 3126 3126 3127 3128 3130 3131 3133 3133 3133 3135 3137 3140 3141 3144 3146 3147 3148 3150 3153 3153 3152 3156 3156 3155 3157 3158 3159 3161 3162 3163 3164 3165
3138 3137 3136 3134 3132 3131 3131 3130 3130 3129 3128 3128 3128 3128 3128 3129 3130 3131 3133 3134 3134 3136 3137 3139 3140 3143 3144 3145 3147 3147 3149 3150 3149 3150 3150 3151 3151 3153 3156 3158 3158 3161 3161
3135 3134 3134 3133 3132 3130 3130 3130 3130 3129 3129 3128 3128 3128 3129 3130 3130 3131 3131 3132 3133 3134 3134 3135 3136 3137 3139 3141 3142 3142 3143 3144 3146 3144 3149 3149 3150 3151 3153 3154 3153 3155 3155
3133 3132 3131 3132 3132 3130 3129 3129 3129 3129 3129 3129 3128 3128 3129 3129 3129 3129 3130 3131 3132 3133 3134 3134 3135 3136 3136 3136 3137 3137 3140 3141 3144 3145 3147 3148 3148 3149 3150 3151 3151 3150 3149
3129 3129 3127 3129 3129 3128 3127 3127 3128 3128 3129 3129 3129 3129 3129 3129 3129 3128 3129 3129 3130 3131 3132 3133 3133 3133 3133 3134 3136 3137 3138 3140 3141 3142 3142 3143 3144 3144 3145 3145 3145 3144 3142
3125 3125 3124 3124 3125 3125 3126 3126 3127 3128 3129 3130 3129 3129 3128 3128 3127 3128 3128 3129 3129 3129 3130 3130 3130 3130 3132 3134 3134 3134 3135 3136 3137 3138 3138 3138 3138 3138 3138 3137 3138 3137 3136
3118 3119 3119 3120 3123 3124 3125 3125 3125 3126 3127 3128 3127 3127 3127 3127 3126 3126 3126 3126 3126 3127 3127 3127 3128 3129 3129 3131 3131 3132 3131 3132 3132 3132 3131 3130 3129 3129 3129 3128 3127 3126 3125
3113 3115 3116 3118 3120 3121 3122 3121 3122 3124 3123 3124 3124 3124 3123 3124 3124 3123 3123 3124 3124 3124 3124 3124 3124 3125 3126 3126 3126 3126 3126 3124 3124 3124 3122 3119 3117 3118 3118 3117 3115 3114 3114
3109 3110 3112 3115 3117 3116 3118 3119 3120 3121 3120 3120 3120 3118 3119 3120 3121 3121 3120 3120 3119 3119 3119 3119 3119 3120 3120 3120 3120 3119 3119 3117 3116 3113 3111 3110 3109 3111 3110 3107 3108 3106 3103
3106 3108 3110 3111 3114 3115 3115 3115 3116 3115 3116 3116 3116 3117 3117 3116 3117 3116 3116 3115 3114 3114 3114 3114 3114 3114 3112 3112 3111 3111 3110 3108 3106 3105 3103 3100 3099 3100 3101 3097 3097 3096 3095
3105 3106 3108 3109 3111 3110 3111 3112 3113 3113 3113 3113 3114 3113 3114 3114 3114 3113 3112 3111 3110 3109 3108 3108 3108 3108 3107 3106 3105 3105 3104 3102 3100 3099 3096 3095 3093 3092 3091 3090 3087 3085 3085
3104 3104 3104 3106 3107 3108 3108 3109 3110 3110 3111 3111 3110 3110 3111 3111 3110 3110 3109 3108 3107 3106 3105 3105 3104 3103 3101 3100 3099 3098 3097 3095 3093 3091 3089 3087 3084 3084 3081 3080 3078 3077 3076
3104 3105 3104 3105 3106 3107 3107 3108 3108 3109 3108 3108 3108 3108 3108 3108 3108 3107 3106 3105 3104 3103 3101 3100 3099 3097 3096 3094 3092 3089 3088 3087 3085 3083 3081 3079 3077 3075 3074 3071 3071 3070 3070
3104 3103 3103 3104 3105 3106 3106 3107 3106 3107 3107 3107 3107 3106 3105 3105 3104 3103 3102 3101 3099 3097 3096 3095 3094 3092 3090 3088 3086 3084 3082 3080 3079 3078 3075 3073 3071 3069 3068 3066 3065 3064 3063
3103 3104 3103 3103 3104 3105 3105 3105 3106 3106 3105 3105 3103 3102 3101 3100 3099 3098 3097 3095 3094 3093 3091 3091 3089 3087 3085 3083 3081 3080 3077 3075 3072 3071 3069 3067 3065 3064 3062 3061 3059 3058 3058
3104 3104 3104 3104 3104 3104 3104 3103 3102 3102 3102 3101 3100 3098 3097 3096 3096 3095 3094 3093 3091 3090 3088 3085 3085 3084 3082 3080 3077 3075 3072 3070 3068 3066 3063 3062 3060 3059 3057 3056 3055 3054 3054
3105 3105 3105 3106 3105 3105 3107 3106 3104 3101 3100 3095 3095 3097 3097 3096 3094 3093 3092 3091 3089 3088 3086 3084 3080 3078 3077 3076 3074 3071 3068 3065 3062 3061 3059 3057 3056 3055 3053 3052 3051 3050 3050
3106 3106 3106 3106 3108 3106 3106 3104 3103 3102 3101 3097 3098 3096 3095 3093 3092 3092 3091 3090 3088 3087 3085 3083 3080 3076 3074 3071 3070 3068 3064 3061 3058 3058 3056 3055 3053 3052 3050 3049 3048 3047 3046
3106 3106 3105 3106 3106 3105 3101 3101 3100 3099 3097 3096 3096 3095 3094 3094 3092 3091 3089 3088 3086 3083 3081 3079 3077 3074 3070 3067 3066 3063 3061 3058 3054 3054 3053 3051 3050 3048 3048 3047 3046 3044 3043
3106 3107 3105 3104 3103 3101 3100 3098 3097 3095 3094 3093 3093 3093 3093 3092 3090 3088 3086 3083 3081 3078 3076 3075 3072 3069 3067 3064 3062 3060 3057 3055 3052 3051 3050 3048 3047 3045 3045 3044 3043 3042 3041
3105 3104 3104 3099 3098 3098 3096 3095 3093 3093 3094 3093 3093 3092 3091 3089 3086 3084 3082 3080 3078 3075 3072 3070 3067 3065 3063 3060 3058 3056 3054 3052 3050 3048 3047 3045 3044 3043 3042 3041 3040 3040 3039
3103 3103 3102 3100 3098 3095 3093 3093 3093 3092 3092 3092 3091 3089 3087 3085 3083 3081 3079 3077 3074 3072 3069 3066 3064 3061 3059 3057 3055 3053 3051 3049 3047 3045 3044 3043 3042 3041 3040 3039 3039 3038 3038
3098 3097 3097 3097 3098 3095 3094 3093 3092 3090 3089 3088 3086 3085 3083 3081 3079 3076 3075 3074 3071 3068 3066 3064 3061 3060 3057 3055 3053 3051 3050 3048 3047 3045 3043 3042 3041 3040 3039 3039 3038 3038 3037